Regional Weather Roundup
Issued by NWS

Home | Current Version | Previous Version | Graphics & Text | Print | Product List | Glossary On
Versions: 1 2 3 4 5 6 7 8 9 10 11 12 13 14 15 16 17 18 19 20 21 22 23 24 25 26 27 28 29 30 31 32 33 34 35 36 37 38 39 40 41 42 43 44 45 46 47 48 49 50
000
ASUS43 KIND 211409
RWRIN

WEATHER ROUNDUP FOR INDIANA
NATIONAL WEATHER SERVICE INDIANAPOLIS IN
1000 AM EDT TUE OCT 21 2014

NOTE: "FAIR" INDICATES FEW OR NO CLOUDS BELOW 12,000 FEET WITH NO
SIGNIFICANT WEATHER AND/OR OBSTRUCTIONS TO VISIBILITY.

* - STATION DOES NOT REPORT WEATHER SUCH AS PRECIPITATION OR FOG.

+ - STATION NOT QUALITY CONTROLLED BY THE NATIONAL WEATHER SERVICE.
    USE DATA WITH CAUTION...ESPECIALLY DEWPOINT AND RELATIVE
    HUMIDITY OBSERVATIONS.

INZ001>003-010>013-019-020-211500-
NORTHWEST INDIANA

CITY           SKY/WX    TMP DP  RH WIND       PRES   REMARKS
GARY /AIRPORT/ PTSUNNY   54  41  62 N12G29    30.12
KNOX *+        CLOUDY    47  43  84 N12       30.09R
LA PORTE +     LGT RAIN  50  48  94 N13       30.09R
MICHIGAN CITY+ LGT RAIN  48  43  81 N12G18    30.10R
MONTICELLO +   CLOUDY    48  47  95 NW7       30.09R
RENSSELAER +   MOSUNNY   50  46  87 N12       30.11R
VALPARAISO     CLOUDY    49  42  77 N9        30.10R

$$

LMZ046-743>745-211500-
SOUTHERN LAKE MICHIGAN

STATION/POSITION TIME  TEMP WIND        PRES
                       AIR  DIR/SP/G
                 (UTC) (F)  (DEG/KT/KT) (MB)
MICHIGAN CITY    1400   51  330/ 23/ 26   N/A

$$

INZ004-005-014>016-021>024-211500-
NORTH CENTRAL INDIANA

CITY           SKY/WX    TMP DP  RH WIND       PRES   REMARKS
ELKHART        CLOUDY    48  41  76 N9        30.08R
GOSHEN         CLOUDY    48  42  80 N10       30.06R
LOGANSPORT +   PTSUNNY   50  43  76 N9        30.09R
PERU/GRISSOM   PTSUNNY   49  47  92 N12G21    30.07R
ROCHESTER +    PTSUNNY   50  45  81 NW10      30.08R
SOUTH BEND     CLOUDY    49  44  83 N9        30.09R
WARSAW +       CLOUDY    46  43  87 N3        30.07R

$$

INZ006>009-017-018-025>027-211500-
NORTHEAST INDIANA

CITY           SKY/WX    TMP DP  RH WIND       PRES   REMARKS
ANGOLA *+      CLOUDY    45  45 100 N7        30.04R
AUBURN +       CLOUDY    46  41  81 NW9       30.05R
FORT WAYNE     PTSUNNY   48  42  80 NW12      30.05R
HUNTINGTON +   CLOUDY    48  41  78 N12       30.05R

$$

INZ028-029-035-036-043>045-051>053-211500-
WEST CENTRAL INDIANA

CITY           SKY/WX    TMP DP  RH WIND       PRES   REMARKS
GREENCASTLE +  CLOUDY    50  45  81 N7        30.09R
LAFAYETTE      LGT RAIN  48  46  93 N6        30.10R
TERRE HAUTE    CLOUDY    52  47  83 N6        30.10R

$$

INZ030>032-037>040-046>048-054>057-064-065-211500-
CENTRAL INDIANA

CITY           SKY/WX    TMP DP  RH WIND       PRES   REMARKS
ANDERSON       CLOUDY    48  41  76 NW17      30.07R
CP ATTERBURY + CLOUDY    50  45  81 NW6       30.08R
FRANKFORT +    CLOUDY    48  48 100 NW8       30.10R FOG
GREENWOOD *+   CLOUDY    50  43  76 NW9G16    30.08
INDIANAPOLIS   PTSUNNY   50  45  83 NW9       30.08R
-EAGLE CREEK   LGT RAIN  49  45  86 N10       30.08R FOG
KOKOMO *+      CLOUDY    48  43  81 N9G17     30.08R
MARION +       CLOUDY    48  41  77 N10G17    30.07R
MT COMFORT *+  PTSUNNY   50  43  76 NW10G17   30.07R
SHELBYVILLE    CLOUDY    52  45  77 NW9       30.06R
ZIONSVILLE +   DRIZZLE   47  44  86 NW7       30.08R

$$

INZ033-034-041-042-049-050-058-059-211500-
EAST CENTRAL INDIANA

CITY           SKY/WX    TMP DP  RH WIND       PRES   REMARKS
MUNCIE         PTSUNNY   50  42  74 NW12      30.05R

$$

INZ060-061-067>069-081>083-085>088-211500-
SOUTHWEST INDIANA

CITY           SKY/WX    TMP DP  RH WIND       PRES   REMARKS
EVANSVILLE     SUNNY     54  47  77 NE7       30.09R
HUNTINGBURG *+ CLOUDY    52  46  82 NE7       30.09R
WASHINGTON +   CLOUDY    51  49  93 N5        30.08R

$$

INZ062-063-066-070>080-084-089>092-211500-
SOUTH CENTRAL AND SOUTHEAST INDIANA

CITY           SKY/WX    TMP DP  RH WIND       PRES   REMARKS
BLOOMINGTON    PTSUNNY   51  47  86 N7        30.08R
NORTH VERNON + CLOUDY    50  50 100 NW7       30.07
SEYMOUR +      CLOUDY    52  46  82 N7        30.07R

$$




USA.gov is the U.S. government's official web portal to all federal, state and local government web resources and services.